Location: Blazny
(46.0612°N, 84.4033°W)
Time: 10:43:21
(UTC-04:00)

ARIANE 6 FM1 Upper Stage - Pass Details

Date: 20 September 2024
Orbit: 564 x 594 km, 62.0° (Epoch: 03 October)

Event Time Altitude Azimuth Distance (km) Brightness Sun altitude
Exits shadow 04:58:39 20° 333° (NNW) 1,394 4.7 -24.7°
Maximum altitude 05:01:29 52° 44° (NE) 741 3.5 -24.2°
Drops below altitude 10° 05:05:45 10° 121° (ESE) 1,929 5.7 -23.6°
Sets 05:08:03 0° 127° (SE) 2,827 6.6 -23.2°
